Fort Benning, AL

4:46 PM CDT on August 19, 2017 (GMT -0500)
Lawson Army Air Field

Weather History for KLSF - June, 2013

Change the Weather History Date:

Sunday, June 23, 2013

  Actual Average Record
Temperature  
Mean Temperature 76 °F -  
Max Temperature 85 °F 86 °F 98 °F (1998)
Min Temperature 68 °F 65 °F 59 °F (2003)
Cooling Degree Days 11    
Growing Degree Days 26 (Base 50)    
Moisture  
Dew Point 72 °F    
Average Humidity 87    
Maximum Humidity 100    
Minimum Humidity 68    
Precipitation  
Precipitation 0.21 in - - ()
Sea Level Pressure  
Sea Level Pressure 30.13 in    
Wind  
Wind Speed 2 mph (SSE)    
Max Wind Speed 7 mph    
Max Gust Speed -    
Visibility 10 miles    
Events Rain , Thunderstorm    
Averages and records for this station are not official NWS values.
T = Trace of Precipitation, MM = Missing Value Source: NWS Daily Summary

Daily Weather History Graph

Daily Weather History Graph

Search for Another Location

Airport or City:

Trip Planner

Search our weather history database for the weather conditions in past years. The results will help you decide how hot, cold, wet, or windy it might be!

Date:

Astronomy

Jun. 23, 2013 Rise Set
Actual Time 6:34 AM EDT 8:50 PM EDT
Civil Twilight 6:05 AM EDT 9:18 PM EDT
Nautical Twilight 5:30 AM EDT 9:53 PM EDT
Astronomical Twilight 4:53 AM EDT 10:31 PM EDT
Moon 9:06 PM EDT (6/23) 6:46 AM EDT (6/23)
Length of Visible Light 15h 13m
Length of Day
14h 16m
Full, 100% of the Moon is Illuminated
Jun 23
Full
Jun 30
Last Quarter
Jul 8
New
Jul 15
First Quarter
Jul 22
Full

Hourly Weather History & Observations

Time (EDT) Temp. Heat Index Dew Point Humidity Pressure Visibility Wind Dir Wind Speed Gust Speed Precip Events Conditions
12:17 AM 71.6 °F - 69.8 °F 94% 30.12 in 10.0 mi Calm Calm - N/A   Light Drizzle
12:26 AM 71.6 °F - 68.0 °F 88% 30.12 in 10.0 mi South 1.2 mph - N/A   Mostly Cloudy
12:58 AM 70.5 °F - 69.4 °F 96% 30.12 in 10.0 mi East 2.3 mph - 0.00 in   Clear
1:58 AM 69.6 °F - 68.7 °F 97% 30.12 in 10.0 mi Calm Calm - N/A   Scattered Clouds
2:28 AM 68.0 °F - 68.0 °F 100% 30.10 in 10.0 mi Calm Calm - N/A   Mostly Cloudy
2:58 AM 68.9 °F - 68.7 °F 99% 30.10 in 10.0 mi East 2.3 mph - N/A   Overcast
3:48 AM 69.8 °F - 69.8 °F 100% 30.09 in 10.0 mi Calm Calm - N/A   Overcast
3:58 AM 70.5 °F - 69.8 °F 98% 30.09 in 10.0 mi ESE 1.2 mph - N/A   Overcast
4:58 AM 70.5 °F - 69.8 °F 98% 30.09 in 10.0 mi Calm Calm - N/A   Scattered Clouds
5:28 AM 69.8 °F - 69.8 °F 100% 30.09 in 10.0 mi Calm Calm - N/A   Mostly Cloudy
5:53 AM 69.8 °F - 69.8 °F 100% 30.10 in 10.0 mi SE 1.2 mph - N/A   Overcast
5:58 AM 69.6 °F - 69.3 °F 99% 30.10 in 10.0 mi SE 2.3 mph - N/A   Overcast
6:31 AM 71.6 °F - 69.8 °F 94% 30.10 in 10.0 mi East 1.2 mph - N/A Rain Light Rain
6:41 AM 71.6 °F - 71.6 °F 100% 30.11 in 10.0 mi ESE 2.3 mph - N/A   Overcast
6:58 AM 70.7 °F - 70.5 °F 99% 30.12 in 10.0 mi Calm Calm - 0.00 in   Overcast
7:58 AM 72.5 °F - 70.3 °F 93% 30.13 in 10.0 mi East 3.5 mph - N/A   Overcast
8:28 AM 73.4 °F - 71.6 °F 94% 30.14 in 10.0 mi ESE 4.6 mph - N/A   Overcast
8:43 AM 73.4 °F - 71.6 °F 94% 30.15 in 10.0 mi ESE 4.6 mph - N/A   Light Drizzle
8:54 AM 73.4 °F - 71.6 °F 94% 30.15 in 10.0 mi SE 4.6 mph - N/A   Overcast
8:58 AM 73.9 °F - 70.9 °F 90% 30.15 in 10.0 mi SSE 3.5 mph - 0.00 in   Overcast
9:58 AM 75.0 °F - 71.1 °F 87% 30.16 in 10.0 mi SSE 4.6 mph - N/A   Overcast
10:03 AM 75.2 °F - 71.6 °F 89% 30.16 in 10.0 mi SE 3.5 mph - N/A   Overcast
10:33 AM 77.0 °F - 71.6 °F 83% 30.16 in 10.0 mi SE 3.5 mph - N/A   Overcast
10:38 AM 77.0 °F - 71.6 °F 83% 30.17 in 10.0 mi SE 1.2 mph - N/A   Overcast
10:58 AM 77.0 °F - 71.6 °F 83% 30.17 in 10.0 mi South 2.3 mph - N/A   Overcast
11:05 AM 77.0 °F - 71.6 °F 83% 30.17 in 10.0 mi Variable 1.2 mph - N/A Rain Light Rain
11:15 AM 77.0 °F - 71.6 °F 83% 30.17 in 10.0 mi Variable 2.3 mph - N/A   Light Drizzle
11:18 AM 77.0 °F - 73.4 °F 89% 30.17 in 10.0 mi Variable 2.3 mph - N/A   Overcast
11:23 AM 77.0 °F - 71.6 °F 83% 30.17 in 10.0 mi Variable 1.2 mph - N/A   Overcast
11:28 AM 78.8 °F - 73.4 °F 83% 30.17 in 10.0 mi South 3.5 mph - N/A   Overcast
11:43 AM 80.6 °F 85.4 °F 73.4 °F 79% 30.17 in 10.0 mi WNW 4.6 mph - N/A   Overcast
11:58 AM 80.2 °F 84.3 °F 72.5 °F 77% 30.17 in 10.0 mi NNW 2.3 mph - 0.00 in   Overcast
12:03 PM 80.6 °F 85.4 °F 73.4 °F 79% 30.16 in 10.0 mi North 2.3 mph - N/A   Overcast
12:13 PM 80.6 °F 85.4 °F 73.4 °F 79% 30.16 in 10.0 mi Variable 1.2 mph - N/A   Mostly Cloudy
12:18 PM 80.6 °F 84.6 °F 71.6 °F 74% 30.16 in 10.0 mi Variable 2.3 mph - N/A   Scattered Clouds
12:48 PM 82.4 °F 87.2 °F 71.6 °F 70% 30.15 in 10.0 mi Variable 3.5 mph - N/A   Mostly Cloudy
12:58 PM 83.5 °F 88.8 °F 71.8 °F 68% 30.15 in 10.0 mi NW 4.6 mph - N/A   Scattered Clouds
1:03 PM 82.4 °F 87.2 °F 71.6 °F 70% 30.15 in 10.0 mi Variable 1.2 mph - N/A   Mostly Cloudy
1:18 PM 82.4 °F 87.2 °F 71.6 °F 70% 30.14 in 10.0 mi South 4.6 mph - N/A   Mostly Cloudy
1:28 PM 82.4 °F 88.2 °F 73.4 °F 74% 30.14 in 10.0 mi West 6.9 mph - N/A   Mostly Cloudy
1:29 PM 82.4 °F 88.2 °F 73.4 °F 74% 30.14 in 10.0 mi West 5.8 mph - N/A Rain Light Rain
1:34 PM 80.6 °F 85.4 °F 73.4 °F 79% 30.14 in 10.0 mi West 4.6 mph - N/A Rain Light Rain
1:39 PM 78.8 °F - 73.4 °F 83% 30.14 in 10.0 mi WSW 5.8 mph - N/A Rain Light Rain
1:54 PM 77.0 °F - 71.6 °F 83% 30.14 in 10.0 mi SE 4.6 mph - N/A Rain Heavy Rain
1:58 PM 77.4 °F - 72.1 °F 84% 30.14 in 10.0 mi SE 6.9 mph - 0.19 in Rain Heavy Rain
2:23 PM 80.6 °F 85.4 °F 73.4 °F 79% 30.13 in 10.0 mi Variable 2.3 mph - N/A   Scattered Clouds
2:58 PM 84.2 °F 90.6 °F 73.2 °F 69% 30.12 in 10.0 mi Variable 3.5 mph - 0.02 in   Partly Cloudy
3:58 PM 84.0 °F 92.2 °F 75.2 °F 75% 30.10 in 10.0 mi SW 5.8 mph - N/A   Partly Cloudy
4:57 PM 82.4 °F 88.2 °F 73.4 °F 74% 30.09 in 10.0 mi SW 5.8 mph - N/A Thunderstorm Thunderstorm
4:58 PM 82.4 °F 88.2 °F 73.4 °F 74% 30.09 in 10.0 mi SW 5.8 mph - N/A Thunderstorm Thunderstorm
5:17 PM 80.6 °F 86.2 °F 75.2 °F 84% 30.10 in 10.0 mi WSW 6.9 mph - N/A   Scattered Clouds
5:58 PM 80.4 °F 85.3 °F 74.1 °F 81% 30.09 in 10.0 mi South 5.8 mph - N/A   Mostly Cloudy
6:03 PM 80.6 °F 86.2 °F 75.2 °F 84% 30.09 in 10.0 mi SSW 6.9 mph - N/A   Mostly Cloudy
6:08 PM 80.6 °F 86.2 °F 75.2 °F 84% 30.09 in 10.0 mi SSW 4.6 mph - N/A   Mostly Cloudy
6:13 PM 78.8 °F - 75.2 °F 89% 30.09 in 10.0 mi SSW 4.6 mph - N/A   Mostly Cloudy
6:43 PM 78.8 °F - 73.4 °F 83% 30.09 in 10.0 mi SSE 5.8 mph - N/A   Mostly Cloudy
6:58 PM 78.1 °F - 73.0 °F 84% 30.11 in 10.0 mi SSE 5.8 mph - N/A   Partly Cloudy
7:58 PM 77.2 °F - 73.6 °F 89% 30.12 in 10.0 mi SSE 3.5 mph - N/A   Clear
8:58 PM 74.5 °F - 72.9 °F 95% 30.12 in 10.0 mi SSE 3.5 mph - N/A   Clear
9:58 PM 74.3 °F - 73.4 °F 97% 30.14 in 10.0 mi Calm Calm - N/A   Clear
10:58 PM 71.8 °F - 71.4 °F 99% 30.12 in 10.0 mi SE 3.5 mph - N/A   Clear
11:20 PM 71.6 °F - 71.6 °F 100% 30.13 in 10.0 mi Calm Calm - N/A Rain Light Rain
11:28 PM 71.6 °F - 71.6 °F 100% 30.14 in 10.0 mi Calm Calm - N/A   Clear
11:29 PM 71.6 °F - 71.6 °F 100% 30.14 in 10.0 mi Calm Calm - N/A Rain Light Rain
11:45 PM 71.6 °F - 71.6 °F 100% 30.14 in 10.0 mi SSE 2.3 mph - N/A   Clear
11:55 PM 71.6 °F - 71.6 °F 100% 30.15 in 7.0 mi SE 3.5 mph - N/A   Clear
11:58 PM 71.8 °F - 71.4 °F 99% 30.15 in 6.0 mi SE 3.5 mph - 0.00 in   Clear